Regional Weather Roundup
Issued by NWS Charleston, SC

Current Version | Previous Version | Text Only | Print | Product List | Glossary Off
Versions: 1 2 3 4 5 6 7 8 9 10 11 12 13 14 15 16 17 18 19 20 21 22 23 24 25 26 27 28 29 30 31 32 33 34 35 36 37 38 39 40 41 42 43 44 45 46 47 48 49 50

931
ASUS42 KCHS 262012
RWRCHS

REGIONAL WEATHER ROUNDUP
NATIONAL WEATHER SERVICE CHARLESTON SC
400 PM EDT WED APR 26 2017

NOTE: "FAIR" INDICATES FEW OR NO CLOUDS BELOW 12,000 FEET WITH NO
SIGNIFICANT WEATHER AND/OR OBSTRUCTIONS TO VISIBILITY.

NOT ALL STATIONS ARE QUALITY CONTROLLED. USE DATA WITH CAUTION...
ESPECIALLY DEWPOINT OBSERVATIONS.

SCZ027-030-031-034>040-042>050-262100-
...SOUTHEAST SOUTH CAROLINA...

CITY           SKY/WX    TMP DP  RH WIND       PRES   REMARKS
N CHARLESTON   MOSUNNY   82  59  45 S16       29.82S
WATERFRONT PRK   N/A     77  64  64 S8G15     29.81S
JOHNS ISLAND   FAIR      81  61  50 SW10      29.84S
PINOPOLIS        N/A     82  63  51 VRB3      29.74F
MONCKS CORNER  FAIR      81  55  41 SW9       29.81S
SUMMERVILLE    MOCLDY    81  59  47 S3        29.82S
BEAUFORT MCAS  MOSUNNY   83  63  50 SE9       29.82F
BEAUFORT ARPT  FAIR      81  57  44 SW8G16    29.83S
HILTON HEAD IS NOT AVBL
WALTERBORO     PTCLDY    82  59  44 S10       29.82S
ALLENDALE      FAIR      82  57  42 S7        29.79F

...SOUTHERN MIDLANDS AND PEE DEE...

CITY           SKY/WX    TMP DP  RH WIND       PRES   REMARKS
GEORGETOWN     FAIR      81  63  54 SW10G18   29.82S
KINGSTREE      FAIR      82  59  44 SW8       29.80F
ORANGEBURG     MOSUNNY   82  58  43 W7        29.80F
BARNWELL       FAIR      86  59  39 SW5G12    29.80F
AIKEN          FAIR      82  55  39 S12       29.83F
MANNING        FAIR      82  59  44 SW21G30   29.80F
COLUMBIA       MOSUNNY   86  56  35 SW3       29.78F
SUMTER         MOSUNNY   84  58  41 SW10      29.77F
FLORENCE       MOSUNNY   83  62  49 S12G20    29.79F
MYRTLE BEACH   MOSUNNY   75  70  83 S15       29.83F
N MYRTLE BEACH SUNNY     75  67  76 S12       29.82F

$$

GAZ063-065-086>088-099>101-113>116-118-119-134>141-150-262100-
...SOUTHEAST GEORGIA...

CITY           SKY/WX    TMP DP  RH WIND       PRES   REMARKS
SAVANNAH ARPT  MOSUNNY   85  56  37 SE10      29.81F
HUNTER AAF     SUNNY     82  62  50 SE8       29.79F
FORT STEWART   MOSUNNY   83  59  43 S3        29.79F
STATESBORO     MOSUNNY   85  55  35 S9        29.80F
SYLVANIA       PTCLDY   N/A N/A N/A CALM      29.81F
CLAXTON        FAIR      82  62  50 SE6       29.81F

...CSRA...CENTRAL AND FAR SOUTHEAST GEORGIA...

CITY           SKY/WX    TMP DP  RH WIND       PRES   REMARKS
THOMSON        SUNNY     82  57  41 SW6       29.85S
AUGUSTA-BUSH   SUNNY     86  60  41 SW9G20    29.78F
AUGUSTA-DANIEL SUNNY     85  54  34 SW8       29.80F
SWAINSBORO     MOCLDY    82  55  39 SW3       29.81F
VIDALIA        CLOUDY    86  59  39 SW6       29.81F
EASTMAN        FAIR      82  42  23 S6        29.84S
HAZLEHURST     FAIR      82  58  43 S3        29.81S
ALMA           MOSUNNY   83  57  41 VRB3      29.81F
WAYCROSS       PTSUNNY   85  59  41 SW8       29.81S
JESUP          FAIR      86  52  30 SW8       29.81F
BAXLEY         FAIR      82  61  47 S8        29.81F
BRUNSWICK      MOSUNNY   82  64  54 SE9       29.82S
SAINT SIMONS   SUNNY     79  60  52 SE12      29.82F

$$

SCZ027-028-034-036>038-045-046-048>050-GAZ119-141-262100-
...LAKE AND SUPPLEMENTAL COASTAL OBSERVATIONS...

STATION/POSITION TIME  TEMP    WIND        PRES    WAVE   SWELL
                       AIR SEA DIR/SP/G            HT/PER HT/PER/DIR
                 (UTC) (F)     (DEG/KT/KT) (MB)    (FT/S) (FT/S/D)
WINYAH BAY       1845   75     140/ 10     1010.0
LAKE MURRAY      1920   80     260/  3/  9 1008.5F
ACE BASIN NERRS  NOT AVBL
FORT PULASKI     1948          170/  7/ 11 1010.2F
SAPELO ISLAND    1900   81     150/  9     1010.0

$$

ANZ835-935-AMZ111-154-330-350-352-354-370-450-454-472-262100-
...C-MAN AND BUOY OBSERVATIONS...

STATION/POSITION TIME  TEMP    WIND        PRES    WAVE   SWELL
                       AIR SEA DIR/SP/G            HT/PER HT/PER/DIR
                 (UTC) (F)     (DEG/KT/KT) (MB)    (FT/S) (FT/S/D)
BUOY 41004       1950   73 73  220/ 12/ 16 1010.5F   4/ 9   3/120/ 9
BUOY 41008       1850   70 74  160/  8/ 10 1010.9    2/ 8   2/100/ 8
FOLLY BEACH CMAN 2000   74     210/ 14/ 16 1011.2S
CAPERS NEARSHORE 1908   74 72  210/ 14/ 19 1010.1F
FRIPP NEARSHORE  1908   73 74  190/  8/ 12 1010.4F


STATION/POSITION TIME  TEMP    WIND        PRES    WAVE   SWELL
                       AIR SEA DIR/SP/G            HT/PER HT/PER/DIR
                 (UTC) (F)     (DEG/KT/KT) (MB)    (FT/S) (FT/S/D)
5E ST. MARYS GA  1930      75                N/A     2/ 9   2/100/11
FRYING PAN BUOY  1950   74 75  190/ 10/ 12 1010.1F   4/ 9   3/130/ 9
BUOY 41025       1950   70 77  260/ 12/ 14 1009.5F   6/ 9   5/140/ 9
CAPE LOOKOUT NC  2000   70     210/ 13/ 16 1009.2F
BUOY 41002       1850   74 75  280/ 16/ 21 1012.7    7/ 8   5/140/ 8
BUOY 41010       1950   76 78  220/ 14/ 17 1012.1F   4/ 9   3/120/ 9
ST AUGUSTINE FL  2000   73 76  130/ 13/ 15 1011.1F


$$




USA.gov is the U.S. government's official web portal to all federal, state and local government web resources and services.